Regional Weather Roundup
Issued by NWS

Home | Current Version | Previous Version | Text Only | Print | Product List | Glossary On
Versions: 1 2 3 4 5 6 7 8 9 10 11 12 13 14 15 16 17 18 19 20 21 22 23 24 25 26 27 28 29 30 31 32 33 34 35 36 37 38 39 40 41 42 43 44 45 46 47 48 49 50
000
ASUS42 KKEY 302310
RWRKEY

FLORIDA REGIONAL WEATHER ROUNDUP FOR THE FLORIDA KEYS
NATIONAL WEATHER SERVICE KEY WEST FLORIDA
600 PM EST FRI JAN 30 2015

...SOUTH FLORIDA AND THE KEYS...

CITY           SKY/WX    TMP DP  RH WIND       PRES   REMARKS
FORT MYERS     PTCLDY    67  56  67 NW8       30.15R
SW REGIONAL AP PTCLDY    67  56  67 NW5       30.15R
NAPLES         PTCLDY    66  58  75 NW8       30.16R
MIAMI          MOCLDY    72  48  42 VRB3      30.14R
WEST KENDALL   PTCLDY    70  49  47 N3        30.14R
HOMESTEAD      CLEAR     69  54  59 E2        30.14R
MARATHON       CLEAR     66  57  72 NW8       30.15R
BOCA CHICA NAS MOCLDY    67  54  63 N12       30.16R
KEY WEST INTL  CLEAR     68  56  65 N10       30.16S

...INTERNATIONAL WEATHER...

CITY           SKY/WX    TMP DP  RH WIND       PRES   REMARKS
NASSAU BAHAMAS MOCLDY    70  55  60 N3        30.14S
CANCUN MEXICO  PTCLDY    75  63  64 NE5       30.11S
COZUMEL MEXICO PTCLDY    72  63  73 E7        30.10S

ADJACENT COASTAL WATERS...

STATION/POSITION TIME  SKY/WX   TEMP    WIND        PRES    WAVE
                                AIR SEA DIR/SP/G            HT/PER
                 (UTC)          (F)     (DEG/KT/KT) (MB)    (FT/S)
PULASKI SHOAL LI NOT AVBL
SAND KEY         NOT AVBL
SOMBRERO KEY     NOT AVBL
LONG KEY         NOT AVBL
MOLASSES REEF    NOT AVBL
FOWEY ROCKS      NOT AVBL
Buoy 42080       NOT AVBL

$$


USA.gov is the U.S. government's official web portal to all federal, state and local government web resources and services.